Wind_Speed
34 34 29 32 32 34 35 35 35 33 37 38 36 36 32 35 32 29 29 29 29 29 29 29 29 31 34 37 37 38 38 38 39 39 40 40 41 42 44 46 46 48 49 50
36 35 32 33 35 38 39 40 39 39 38 37 35 32 33 32 32 34 33 31 30 30 31 32 32 33 35 36 39 40 40 41 42 43 45 45 46 47 47 46 48 50 52 54
37 38 35 37 39 41 43 42 40 39 36 35 36 35 32 33 37 39 38 36 33 32 32 34 34 35 35 35 37 37 39 42 43 45 46 48 50 52 52 52 53 53 53 55
43 41 42 42 42 41 41 37 37 36 37 37 38 42 38 35 37 36 36 36 36 36 35 34 34 36 38 41 42 43 45 47 49 50 50 51 53 53 55 56 56 56 56 57
42 44 43 43 39 39 36 36 37 37 38 41 41 45 47 42 36 35 36 36 35 34 36 38 40 42 46 49 52 53 52 51 52 54 56 56 57 57 59 60 60 61 61 61
40 40 38 37 38 38 37 37 38 39 41 46 39 44 50 44 42 40 35 34 37 39 41 43 45 48 51 53 55 55 56 54 55 55 55 56 57 57 58 59 61 63 65 67
38 38 38 39 36 37 38 39 41 43 43 46 46 47 46 47 45 43 42 45 45 46 47 50 51 53 55 56 57 57 57 57 56 57 58 60 61 62 64 65 67 69 71 71
38 38 38 37 37 41 41 42 42 43 46 48 47 47 47 47 45 44 47 47 46 48 49 52 53 54 57 58 59 59 60 59 59 60 63 65 66 68 70 71 72 73 74 75
40 41 39 40 41 41 42 44 40 46 47 50 53 52 49 50 51 52 49 49 50 50 51 54 57 58 59 60 61 61 62 64 65 67 68 71 72 73 75 75 77 78 79 80
43 44 42 41 42 44 45 45 45 44 46 53 56 55 56 55 54 52 51 51 52 53 57 59 61 62 62 63 65 66 68 70 71 73 75 74 75 76 76 76 76 78 79 81
44 45 47 46 47 44 45 49 47 45 50 52 57 59 62 60 56 57 55 54 54 56 59 61 63 64 65 67 70 72 73 74 76 78 78 77 77 77 77 78 79 81 83 85
46 48 49 48 48 49 50 49 47 50 51 54 60 62 61 59 57 56 55 56 58 60 63 65 65 66 68 71 73 74 76 77 78 78 79 80 81 81 82 83 84 86 87 88
50 53 53 54 56 54 50 47 48 51 53 63 62 67 58 57 58 55 55 59 61 63 64 66 68 70 72 73 75 77 77 77 78 80 79 78 81 82 83 85 87 88 89 89
56 57 59 61 59 59 60 58 54 55 62 62 65 60 59 58 57 57 59 62 64 66 68 70 71 73 74 76 77 77 77 77 77 78 78 80 81 84 86 87 87 88 89 90
59 61 61 61 60 60 62 61 62 64 60 64 59 58 57 59 59 60 63 67 68 70 71 72 73 73 75 75 75 75 76 77 77 78 80 81 82 83 85 86 87 89 91 90
54 62 64 64 65 66 67 67 73 62 64 62 60 61 57 59 62 64 68 71 69 70 72 71 72 73 72 72 73 74 75 77 78 79 80 81 83 84 86 88 86 82 77 72
60 62 64 68 68 68 72 75 66 65 61 57 61 56 58 61 65 68 69 70 71 72 72 72 71 70 70 71 73 75 77 77 78 80 81 83 84 86 83 76 71 67 64 64
63 66 67 70 70 75 75 71 70 66 60 55 56 57 60 65 69 71 72 73 74 73 71 69 69 70 72 74 75 76 77 79 81 82 83 83 81 75 69 64 62 61 61 63
62 68 71 75 76 72 72 71 65 62 62 64 61 63 69 71 72 73 72 75 74 70 69 69 70 71 74 75 76 78 79 81 82 82 81 75 68 64 61 60 60 61 61 61
59 66 71 73 74 75 76 71 62 64 68 62 65 69 71 72 73 69 74 72 70 70 70 71 73 74 75 76 78 80 81 81 79 76 68 64 62 61 60 60 61 61 61 62
60 67 70 70 74 78 72 67 65 68 68 66 68 69 69 69 71 72 70 69 69 70 71 73 75 75 77 79 80 80 80 75 68 62 61 60 60 59 60 60 61 62 63 65
61 67 70 71 70 73 67 64 64 65 66 63 63 65 65 67 68 68 68 68 70 72 73 75 77 78 78 79 79 77 70 62 59 57 57 57 56 57 58 59 61 63 66 67
65 64 66 69 70 69 62 60 60 62 61 61 60 62 65 66 65 67 69 71 73 75 77 78 79 78 77 75 69 62 58 57 56 54 55 55 56 57 59 61 63 66 67 67
58 57 65 62 62 57 57 60 60 62 61 61 63 66 69 69 70 72 73 75 76 77 79 78 76 71 66 60 58 56 55 54 53 54 55 56 57 59 61 63 65 64 65 66
55 54 56 52 51 54 57 59 61 62 62 62 65 67 70 73 73 74 75 76 75 74 68 66 63 57 55 56 56 55 54 53 53 55 56 58 60 62 63 63 63 63 63 61
45 42 50 53 56 59 59 62 61 62 62 65 68 69 70 73 73 72 68 65 62 59 56 53 52 52 53 55 56 57 55 55 55 55 58 61 63 61 61 62 59 57 57 58
Wind_Direction
269 272 275 270 273 278 281 282 282 284 280 277 277 280 283 279 279 278 281 284 286 286 284 283 284 286 287 289 290 291 288 288 287 287 285 283 280 277 276 273 269 268 269 267
273 272 270 272 275 278 280 279 285 282 280 280 283 284 284 286 289 289 286 286 285 284 284 283 282 283 284 285 287 287 285 285 286 284 283 281 279 277 274 270 270 268 267 267
270 271 269 271 274 278 277 280 281 278 279 280 286 288 287 290 292 291 291 290 286 285 286 288 288 287 286 287 286 284 286 286 283 279 277 277 277 277 275 273 272 271 270 269
269 270 270 268 275 271 270 271 271 275 280 283 284 290 288 286 284 286 288 289 289 290 290 289 290 291 290 289 288 284 282 280 278 276 276 274 273 272 273 273 273 270 268 267
271 268 266 268 269 270 269 268 272 276 277 283 287 291 291 284 281 281 284 285 286 287 288 290 290 288 289 288 288 287 283 279 277 275 273 272 273 273 273 274 275 276 276 275
265 265 265 263 264 266 270 271 270 271 274 280 285 284 286 287 288 288 284 285 287 286 288 287 287 287 286 285 283 281 279 280 277 274 272 272 273 275 275 275 275 273 272 273
261 261 262 262 262 265 266 266 267 271 277 285 283 281 286 287 290 289 291 294 295 293 292 291 292 291 289 287 285 283 283 281 280 279 278 278 278 278 277 276 275 275 275 276
256 256 258 262 266 267 265 266 269 278 280 281 278 280 285 288 287 288 290 293 291 287 288 288 287 287 286 285 284 283 283 282 281 280 280 279 278 278 278 278 278 276 275 274
257 255 257 260 262 265 272 273 276 277 279 283 286 284 286 286 289 291 292 291 288 289 288 286 285 283 283 283 283 283 283 282 281 280 280 279 280 279 279 279 278 277 277 277
258 261 262 262 266 269 275 274 269 272 276 278 281 284 283 284 286 290 289 289 288 286 285 284 283 282 283 282 282 281 281 281 282 282 282 282 280 279 280 282 284 285 285 285
260 263 266 267 269 272 269 269 267 269 269 276 280 284 286 288 291 291 292 290 287 284 283 281 280 281 282 282 281 281 281 281 280 280 281 282 282 283 285 287 288 288 287 287
263 264 267 269 270 269 265 266 267 269 276 277 276 284 286 290 291 290 289 289 287 284 282 281 282 283 282 281 282 282 281 282 282 282 284 285 288 289 289 290 290 290 290 288
266 269 271 269 270 273 270 268 265 270 274 276 277 285 288 287 288 287 285 282 280 280 280 281 281 282 283 282 282 282 283 284 286 288 290 291 292 292 293 293 292 291 289 288
266 267 268 272 271 271 270 270 271 275 276 282 281 287 290 289 287 285 283 281 279 280 282 282 283 283 283 284 284 285 287 289 291 292 292 293 293 292 291 290 289 289 288 288
260 263 265 268 267 264 268 272 273 274 282 284 290 291 290 286 284 281 280 280 280 281 282 283 284 284 284 286 288 289 289 291 291 291 291 290 290 291 291 292 292 291 291 290
257 260 263 264 262 258 260 268 269 279 285 290 291 291 292 284 281 283 281 280 282 282 283 283 284 286 287 287 288 289 290 289 289 290 292 293 293 293 293 293 293 292 291 291
256 261 258 261 261 261 265 269 275 282 285 288 285 289 281 281 279 279 279 281 281 282 283 285 286 286 286 287 288 288 289 291 292 294 294 294 294 294 294 293 292 291 291 291
251 253 256 262 266 268 271 276 279 285 286 286 284 282 284 281 278 278 278 279 280 283 285 285 284 285 286 287 287 289 292 293 294 295 295 294 294 293 292 292 292 292 292 292
254 252 260 264 268 269 273 278 285 284 284 286 284 284 279 277 277 279 279 279 281 283 284 285 285 286 286 288 290 291 293 294 295 295 294 294 293 293 293 293 293 294 295 295
262 259 259 260 260 266 271 278 281 280 281 283 281 277 277 277 279 279 278 281 284 285 285 285 286 287 288 290 292 293 294 294 294 294 292 292 292 293 293 294 294 295 295 295
265 262 259 261 267 270 275 281 285 280 285 278 278 279 278 278 279 280 281 283 284 285 285 286 288 289 291 292 293 293 293 293 292 290 290 290 291 292 293 294 294 295 296 298
266 263 263 266 273 279 282 281 279 278 279 279 277 277 279 281 281 282 283 283 284 285 286 288 290 291 292 292 292 291 291 289 290 289 289 289 290 292 293 294 295 297 298 299
264 269 271 273 277 282 285 281 275 273 274 277 280 281 280 280 282 283 284 286 287 289 290 291 291 292 292 289 289 289 289 289 289 290 291 292 293 294 294 296 298 299 299 299
267 274 278 285 287 283 276 274 276 278 280 282 284 283 283 285 286 286 288 290 291 292 292 292 291 289 287 288 288 288 288 289 290 291 291 292 294 296 297 297 297 298 298 300
278 282 286 284 281 277 274 273 274 277 280 281 282 284 286 288 290 292 292 292 292 292 291 288 289 289 287 286 288 289 290 290 290 291 292 294 296 298 297 298 298 299 300 300
287 284 278 272 269 270 271 275 278 279 282 285 285 286 289 290 292 292 294 294 293 290 289 289 287 286 284 285 287 288 290 291 292 292 293 294 297 297 297 299 300 301 301 300
Height
5811 5812 5816 5813 5813 5812 5813 5813 5813 5816 5813 5810 5811 5810 5813 5810 5811 5811 5810 5809 5808 5808 5807 5806 5804 5804 5804 5803 5802 5800 5799 5797 5796 5794 5793 5791 5788 5787 5786 5784 5782 5780 5778 5776
5803 5803 5805 5805 5805 5805 5805 5804 5806 5805 5803 5801 5802 5804 5803 5804 5803 5803 5802 5801 5801 5801 5800 5799 5798 5797 5796 5794 5793 5792 5790 5789 5787 5784 5782 5781 5779 5776 5774 5772 5771 5769 5767 5766
5793 5794 5797 5797 5797 5797 5795 5797 5796 5795 5795 5793 5792 5794 5795 5795 5794 5793 5793 5792 5792 5790 5790 5789 5788 5788 5787 5786 5785 5782 5780 5779 5776 5774 5773 5771 5769 5766 5764 5762 5760 5758 5756 5754
5783 5787 5787 5787 5789 5788 5786 5788 5786 5786 5785 5785 5784 5783 5786 5787 5784 5784 5784 5783 5782 5781 5780 5779 5778 5778 5777 5775 5774 5772 5770 5767 5765 5762 5760 5758 5756 5754 5752 5749 5747 5745 5742 5740
5776 5775 5778 5778 5778 5778 5779 5778 5777 5776 5775 5775 5776 5776 5774 5775 5777 5777 5776 5775 5775 5774 5772 5772 5769 5766 5764 5762 5761 5759 5757 5754 5752 5749 5747 5744 5742 5740 5738 5735 5733 5730 5727 5724
5765 5765 5767 5769 5769 5769 5770 5769 5767 5765 5765 5764 5769 5765 5760 5763 5764 5765 5765 5766 5764 5763 5761 5759 5757 5753 5750 5747 5745 5742 5740 5738 5736 5734 5732 5730 5727 5724 5721 5720 5717 5714 5712 5709
5754 5756 5756 5758 5759 5760 5759 5758 5757 5756 5756 5756 5755 5753 5756 5754 5753 5752 5751 5750 5749 5746 5743 5741 5738 5735 5733 5730 5728 5726 5725 5723 5721 5719 5717 5715 5712 5709 5706 5702 5699 5695 5692 5689
5743 5746 5746 5749 5750 5749 5748 5748 5748 5747 5745 5745 5743 5740 5742 5742 5741 5740 5739 5740 5737 5733 5731 5727 5723 5720 5718 5715 5712 5711 5709 5707 5706 5703 5702 5699 5695 5692 5688 5685 5682 5678 5674 5671
5733 5734 5737 5737 5737 5737 5737 5735 5738 5734 5734 5734 5735 5732 5732 5730 5730 5730 5729 5724 5722 5721 5717 5714 5710 5706 5703 5700 5698 5695 5693 5691 5689 5687 5683 5680 5676 5672 5668 5665 5661 5657 5654 5650
5722 5723 5724 5725 5725 5724 5726 5727 5725 5724 5723 5720 5721 5722 5719 5718 5718 5718 5714 5711 5711 5708 5702 5698 5694 5691 5687 5685 5682 5679 5676 5673 5670 5667 5663 5659 5654 5650 5646 5643 5640 5636 5633 5630
5710 5711 5713 5713 5712 5715 5714 5713 5713 5713 5710 5709 5709 5708 5703 5704 5705 5701 5700 5698 5695 5692 5688 5682 5678 5675 5673 5670 5665 5662 5659 5655 5651 5647 5643 5640 5635 5631 5628 5624 5621 5617 5613 5609
5698 5697 5697 5699 5700 5699 5700 5702 5701 5697 5700 5698 5694 5696 5692 5694 5689 5685 5684 5682 5678 5673 5669 5665 5663 5662 5658 5653 5649 5645 5640 5636 5632 5628 5625 5620 5616 5611 5607 5603 5598 5593 5587 5583
5683 5683 5685 5684 5684 5686 5689 5691 5690 5687 5686 5680 5677 5681 5683 5678 5674 5673 5670 5666 5663 5660 5656 5653 5649 5645 5640 5635 5631 5626 5621 5617 5613 5609 5604 5600 5595 5589 5584 5579 5574 5568 5562 5557
5667 5668 5668 5670 5672 5673 5674 5676 5676 5673 5666 5666 5665 5667 5666 5664 5661 5657 5653 5649 5644 5641 5638 5634 5631 5626 5621 5616 5611 5607 5602 5598 5593 5589 5585 5579 5573 5567 5562 5557 5551 5545 5539 5532
5653 5654 5653 5654 5655 5654 5657 5659 5660 5655 5655 5648 5656 5651 5654 5649 5644 5639 5635 5629 5627 5624 5621 5617 5613 5608 5604 5599 5593 5588 5583 5579 5574 5570 5565 5559 5553 5547 5540 5533 5526 5519 5512 5505
5639 5637 5638 5638 5640 5639 5639 5647 5643 5644 5640 5635 5635 5634 5637 5631 5626 5623 5617 5612 5611 5608 5603 5599 5595 5591 5586 5581 5576 5570 5566 5561 5557 5551 5545 5538 5530 5523 5516 5509 5501 5494 5488 5483
5625 5624 5623 5621 5623 5622 5619 5634 5631 5625 5625 5623 5616 5624 5617 5615 5610 5605 5601 5597 5593 5588 5584 5582 5578 5574 5569 5564 5558 5553 5547 5542 5536 5529 5522 5514 5507 5500 5493 5486 5480 5475 5471 5466
5609 5610 5609 5606 5607 5599 5612 5613 5610 5606 5606 5604 5601 5600 5600 5596 5592 5588 5583 5579 5574 5571 5569 5566 5561 5558 5554 5548 5541 5533 5527 5521 5514 5506 5499 5491 5484 5478 5472 5468 5464 5459 5455 5449
5594 5595 5593 5589 5588 5587 5594 5593 5593 5585 5589 5585 5580 5584 5579 5576 5575 5575 5567 5560 5558 5556 5552 5548 5543 5539 5534 5528 5521 5514 5507 5499 5491 5484 5476 5469 5464 5460 5455 5451 5447 5442 5438 5432
5580 5580 5578 5572 5568 5566 5580 5577 5572 5566 5567 5575 5567 5562 5560 5559 5558 5561 5545 5544 5543 5539 5534 5528 5523 5520 5514 5507 5500 5494 5487 5479 5471 5463 5457 5451 5447 5443 5439 5436 5430 5425 5420 5415
5564 5564 5561 5557 5549 5549 5558 5558 5554 5547 5552 5551 5550 5547 5544 5542 5540 5536 5533 5529 5526 5521 5515 5509 5504 5499 5492 5486 5480 5474 5466 5459 5452 5447 5441 5437 5433 5428 5424 5420 5413 5409 5403 5397
5548 5547 5547 5542 5536 5533 5542 5533 5532 5530 5524 5527 5528 5527 5526 5524 5521 5516 5513 5511 5506 5503 5497 5490 5484 5479 5472 5465 5459 5454 5448 5442 5437 5431 5426 5422 5418 5414 5409 5404 5397 5392 5385 5380
5530 5534 5531 5527 5523 5520 5516 5510 5509 5507 5508 5508 5509 5508 5506 5505 5503 5499 5494 5490 5486 5482 5476 5470 5463 5459 5452 5444 5439 5435 5430 5426 5421 5416 5411 5407 5402 5397 5392 5387 5381 5375 5368 5363
5517 5519 5511 5508 5508 5500 5494 5490 5489 5488 5491 5491 5491 5489 5484 5483 5483 5481 5477 5472 5466 5460 5454 5447 5442 5437 5431 5425 5421 5418 5414 5410 5406 5401 5397 5392 5387 5382 5376 5371 5365 5359 5352 5347
5503 5504 5499 5492 5487 5480 5476 5473 5470 5471 5475 5477 5474 5470 5467 5462 5463 5460 5459 5454 5447 5441 5434 5426 5422 5418 5414 5408 5405 5402 5398 5394 5391 5386 5382 5377 5372 5366 5361 5355 5349 5343 5336 5330
5492 5489 5480 5472 5468 5460 5459 5456 5458 5456 5456 5457 5453 5454 5451 5446 5442 5439 5438 5433 5426 5421 5416 5411 5406 5402 5398 5394 5390 5386 5382 5378 5375 5371 5366 5361 5356 5350 5345 5339 5334 5326 5321 5316